TimeMDT,TemperatureF,Dew PointF,Humidity,Sea Level PressureIn,VisibilityMPH,Wind Direction,Wind SpeedMPH,Gust SpeedMPH,PrecipitationIn,Events,Conditions,WindDirDegrees,DateUTC
12:56 AM,26.1,21.0,81,30.32,-9999.0,Calm,Calm,-,N/A,,Unknown,0,2013-04-27 06:56:00
1:56 AM,26.1,21.0,81,30.30,-9999.0,Calm,Calm,-,N/A,,Unknown,0,2013-04-27 07:56:00
2:56 AM,25.0,19.9,81,30.28,-9999.0,Calm,Calm,-,N/A,,Unknown,0,2013-04-27 08:56:00
3:56 AM,24.1,19.0,81,30.28,-9999.0,Calm,Calm,-,N/A,,Unknown,0,2013-04-27 09:56:00
4:56 AM,23.0,19.0,85,30.29,-9999.0,Calm,Calm,-,N/A,,Unknown,0,2013-04-27 10:56:00
5:56 AM,21.9,18.0,85,30.29,-9999.0,Calm,Calm,-,N/A,,Unknown,0,2013-04-27 11:56:00
6:56 AM,21.9,18.0,85,30.31,-9999.0,Calm,Calm,-,N/A,,Unknown,0,2013-04-27 12:56:00
7:56 AM,27.0,21.0,78,30.32,-9999.0,Calm,Calm,-,N/A,,Unknown,0,2013-04-27 13:56:00
8:56 AM,32.0,19.9,61,30.34,-9999.0,Calm,Calm,-,N/A,,Unknown,0,2013-04-27 14:56:00
9:56 AM,35.1,24.1,64,30.32,-9999.0,Variable,4.6,-,N/A,,Unknown,0,2013-04-27 15:56:00
10:56 AM,43.0,24.1,47,30.28,-9999.0,ESE,4.6,-,N/A,,Unknown,110,2013-04-27 16:56:00
11:56 AM,51.1,14.0,23,30.23,-9999.0,WNW,10.4,21.9,N/A,,Unknown,290,2013-04-27 17:56:00
12:56 PM,52.0,14.0,22,30.22,-9999.0,West,8.1,26.5,N/A,,Unknown,270,2013-04-27 18:56:00
1:56 PM,52.0,15.1,23,30.21,-9999.0,West,9.2,21.9,N/A,,Unknown,270,2013-04-27 19:56:00
2:56 PM,52.0,16.0,24,30.20,-9999.0,Variable,6.9,16.1,N/A,,Unknown,0,2013-04-27 20:56:00
3:56 PM,52.0,16.0,24,30.17,-9999.0,Variable,5.8,18.4,N/A,,Unknown,0,2013-04-27 21:56:00
4:56 PM,54.0,19.0,25,30.14,-9999.0,West,11.5,23.0,N/A,,Unknown,280,2013-04-27 22:56:00
5:56 PM,53.1,19.9,27,30.14,-9999.0,West,10.4,21.9,N/A,,Unknown,260,2013-04-27 23:56:00
6:56 PM,53.1,19.9,27,30.10,-9999.0,Variable,6.9,24.2,N/A,,Unknown,0,2013-04-28 00:56:00
7:56 PM,50.0,23.0,35,30.08,-9999.0,Variable,5.8,-,N/A,,Unknown,0,2013-04-28 01:56:00
8:56 PM,46.9,24.1,41,30.07,-9999.0,Variable,4.6,-,N/A,,Unknown,0,2013-04-28 02:56:00
9:56 PM,42.1,24.1,49,30.08,-9999.0,West,4.6,-,N/A,,Unknown,280,2013-04-28 03:56:00
10:56 PM,34.0,25.0,70,30.07,-9999.0,Calm,Calm,-,N/A,,Unknown,0,2013-04-28 04:56:00
11:56 PM,30.9,25.0,79,30.05,-9999.0,Calm,Calm,-,N/A,,Unknown,0,2013-04-28 05:56:00